Meteo pe oră la AlMudaina

Astăzi, 19 Ianuarie, Marţi

Timp Temperatura Precipitaţii Vânt Presiune Umiditate
00:00 +7°C° 0 mm 0 m/s 750 mmHg 68%
01:00 +7°C° 0 mm 0 m/s 749 mmHg 70%
02:00 +6°C° 0 mm 0 m/s 749 mmHg 73%
03:00 +6°C° 0 mm 0 m/s 749 mmHg 75%
04:00 +7°C° 0 mm 1 m/s 748 mmHg 77%
05:00 +7°C° 0 mm 1 m/s 748 mmHg 78%
06:00 +6°C° 0 mm 1 m/s 748 mmHg 80%
07:00 +7°C° 0 mm 1 m/s 748 mmHg 77%
08:00 +8°C° 0 mm 1 m/s 748 mmHg 75%
09:00 +9°C° 0 mm 1 m/s 748 mmHg 72%
10:00 +11°C° 0 mm 1 m/s 748 mmHg 66%
11:00 +12°C° 0 mm 1 m/s 748 mmHg 60%
12:00 +14°C° 0 mm 1 m/s 748 mmHg 54%
13:00 +14°C° 0 mm 1 m/s 747 mmHg 53%
14:00 +14°C° 0 mm 1 m/s 747 mmHg 53%
15:00 +14°C° 0 mm 2 m/s 746 mmHg 53%
16:00 +13°C° 0 mm 1 m/s 746 mmHg 60%
17:00 +11°C° 0 mm 1 m/s 746 mmHg 68%
18:00 +10°C° 0 mm 1 m/s 746 mmHg 75%
19:00 +9°C° 0 mm 1 m/s 745 mmHg 79%
20:00 +9°C° 0 mm 1 m/s 745 mmHg 82%
21:00 +7°C° 0 mm 0 m/s 745 mmHg 85%
22:00 +7°C° 0 mm 0 m/s 745 mmHg 86%
23:00 +8°C° 0 mm 1 m/s 745 mmHg 86%

Mâine, 20 Ianuarie, Miercuri

Timp Temperatura Precipitaţii Vânt Presiune Umiditate
00:00 +8°C° 0 mm 1 m/s 745 mmHg 87%
01:00 +8°C° 0 mm 1 m/s 744 mmHg 86%
02:00 +8°C° 0 mm 1 m/s 743 mmHg 85%
03:00 +8°C° 0 mm 2 m/s 743 mmHg 85%
04:00 +8°C° 0 mm 2 m/s 742 mmHg 83%
05:00 +8°C° 0 mm 2 m/s 742 mmHg 82%
06:00 +8°C° 0 mm 3 m/s 742 mmHg 80%
07:00 +8°C° 0.3 mm 3 m/s 741 mmHg 80%
08:00 +9°C° 0.3 mm 3 m/s 741 mmHg 81%
09:00 +9°C° 0.3 mm 3 m/s 741 mmHg 81%
10:00 +9°C° 2.5 mm 3 m/s 740 mmHg 85%
11:00 +8°C° 2.5 mm 4 m/s 740 mmHg 88%
12:00 +8°C° 2.5 mm 5 m/s 740 mmHg 92%
13:00 +9°C° 1.2 mm 5 m/s 739 mmHg 91%
14:00 +10°C° 1.2 mm 5 m/s 739 mmHg 90%
15:00 +11°C° 1.2 mm 6 m/s 738 mmHg 88%
16:00 +12°C° 0.3 mm 5 m/s 739 mmHg 88%
17:00 +10°C° 0.3 mm 5 m/s 739 mmHg 87%
18:00 +10°C° 0.3 mm 5 m/s 739 mmHg 86%
19:00 +10°C° 0 mm 4 m/s 740 mmHg 88%
20:00 +10°C° 0 mm 4 m/s 740 mmHg 91%
21:00 +9°C° 0 mm 3 m/s 741 mmHg 93%
22:00 +9°C° 0 mm 3 m/s 741 mmHg 94%
23:00 +8°C° 0 mm 3 m/s 742 mmHg 95%

Poimâine, 21 Ianuarie, Joi

Timp Temperatura Precipitaţii Vânt Presiune Umiditate
00:00 +8°C° 0 mm 3 m/s 742 mmHg 95%
01:00 +8°C° 0 mm 2 m/s 742 mmHg 96%
02:00 +8°C° 0 mm 2 m/s 742 mmHg 96%
03:00 +8°C° 0 mm 2 m/s 742 mmHg 97%
04:00 +8°C° 0 mm 2 m/s 743 mmHg 97%
05:00 +8°C° 0 mm 2 m/s 743 mmHg 97%
06:00 +8°C° 0 mm 2 m/s 743 mmHg 97%
07:00 +9°C° 0 mm 2 m/s 743 mmHg 96%
08:00 +9°C° 0 mm 3 m/s 743 mmHg 95%
09:00 +10°C° 0 mm 3 m/s 744 mmHg 94%
10:00 +11°C° 0 mm 4 m/s 744 mmHg 90%
11:00 +12°C° 0 mm 5 m/s 744 mmHg 86%
12:00 +13°C° 0 mm 6 m/s 744 mmHg 82%
13:00 +13°C° 0.1 mm 6 m/s 743 mmHg 82%
14:00 +14°C° 0.1 mm 7 m/s 743 mmHg 83%
15:00 +14°C° 0.1 mm 7 m/s 742 mmHg 83%
16:00 +12°C° 0.3 mm 7 m/s 742 mmHg 86%
17:00 +12°C° 0.3 mm 7 m/s 742 mmHg 88%
18:00 +12°C° 0.3 mm 7 m/s 742 mmHg 90%
19:00 +12°C° 0.7 mm 7 m/s 742 mmHg 91%
20:00 +13°C° 0.7 mm 6 m/s 743 mmHg 92%
21:00 +13°C° 0.7 mm 6 m/s 743 mmHg 94%
22:00 +13°C° 0.2 mm 5 m/s 743 mmHg 94%
23:00 +12°C° 0.2 mm 4 m/s 743 mmHg 95%

22 Ianuarie, Vineri

Timp Temperatura Precipitaţii Vânt Presiune Umiditate
00:00 +12°C° 0.2 mm 4 m/s 743 mmHg 96%
01:00 +12°C° 0 mm 3 m/s 743 mmHg 96%
02:00 +11°C° 0 mm 3 m/s 743 mmHg 96%
03:00 +10°C° 0 mm 2 m/s 743 mmHg 96%
04:00 +10°C° 0 mm 2 m/s 743 mmHg 97%
05:00 +10°C° 0 mm 3 m/s 743 mmHg 97%
06:00 +10°C° 0 mm 3 m/s 743 mmHg 97%
07:00 +10°C° 0 mm 4 m/s 743 mmHg 96%
08:00 +10°C° 0 mm 5 m/s 743 mmHg 95%
09:00 +10°C° 0 mm 5 m/s 742 mmHg 93%
10:00 +11°C° 0.3 mm 7 m/s 742 mmHg 89%
11:00 +12°C° 0.3 mm 8 m/s 742 mmHg 85%
12:00 +13°C° 0.3 mm 9 m/s 742 mmHg 81%
13:00 +13°C° 0.3 mm 8 m/s 742 mmHg 74%
14:00 +13°C° 0.3 mm 8 m/s 742 mmHg 67%
15:00 +14°C° 0.3 mm 7 m/s 742 mmHg 60%
16:00 +13°C° 0 mm 6 m/s 743 mmHg 66%
17:00 +11°C° 0 mm 4 m/s 744 mmHg 71%
18:00 +10°C° 0 mm 3 m/s 745 mmHg 77%
19:00 +9°C° 0 mm 3 m/s 745 mmHg 79%
20:00 +8°C° 0 mm 2 m/s 746 mmHg 82%
21:00 +7°C° 0 mm 2 m/s 747 mmHg 85%
22:00 +8°C° 0 mm 1 m/s 747 mmHg 87%
23:00 +7°C° 0 mm 1 m/s 747 mmHg 88%

23 Ianuarie, Sâmbătă

Timp Temperatura Precipitaţii Vânt Presiune Umiditate
00:00 +7°C° 0 mm 1 m/s 747 mmHg 89%
01:00 +7°C° 0 mm 1 m/s 747 mmHg 90%
02:00 +6°C° 0 mm 1 m/s 747 mmHg 91%
03:00 +6°C° 0 mm 1 m/s 747 mmHg 91%
04:00 +6°C° 0 mm 1 m/s 747 mmHg 92%
05:00 +5°C° 0 mm 1 m/s 747 mmHg 92%
06:00 +5°C° 0 mm 1 m/s 747 mmHg 93%
07:00 +6°C° 0 mm 1 m/s 747 mmHg 91%
08:00 +7°C° 0 mm 1 m/s 748 mmHg 89%
09:00 +6°C° 0 mm 0 m/s 748 mmHg 86%
10:00 +9°C° 0 mm 1 m/s 748 mmHg 81%
11:00 +9°C° 0 mm 2 m/s 748 mmHg 75%
12:00 +12°C° 0 mm 2 m/s 747 mmHg 70%
13:00 +12°C° 0 mm 2 m/s 747 mmHg 70%
14:00 +11°C° 0 mm 3 m/s 746 mmHg 70%
15:00 +11°C° 0 mm 3 m/s 746 mmHg 70%
16:00 +12°C° 0 mm 2 m/s 746 mmHg 74%
17:00 +10°C° 0 mm 2 m/s 746 mmHg 79%
18:00 +9°C° 0 mm 2 m/s 746 mmHg 83%
19:00 +9°C° 0 mm 2 m/s 746 mmHg 84%
20:00 +10°C° 0 mm 2 m/s 746 mmHg 85%
21:00 +10°C° 0 mm 3 m/s 746 mmHg 87%
22:00 +10°C° 0 mm 3 m/s 746 mmHg 88%
23:00 +9°C° 0 mm 3 m/s 746 mmHg 90%

24 Ianuarie, Duminică

Timp Temperatura Precipitaţii Vânt Presiune Umiditate
00:00 +9°C° 0 mm 3 m/s 746 mmHg 92%
01:00 +10°C° 0 mm 3 m/s 746 mmHg 92%
02:00 +10°C° 0 mm 3 m/s 746 mmHg 92%
03:00 +10°C° 0 mm 3 m/s 745 mmHg 93%
04:00 +10°C° 0 mm 3 m/s 745 mmHg 93%
05:00 +10°C° 0 mm 3 m/s 745 mmHg 94%
06:00 +11°C° 0 mm 3 m/s 745 mmHg 95%
07:00 +11°C° 0 mm 3 m/s 745 mmHg 95%
08:00 +11°C° 0 mm 3 m/s 746 mmHg 95%
09:00 +12°C° 0 mm 3 m/s 746 mmHg 94%
10:00 +13°C° 0 mm 3 m/s 746 mmHg 92%
11:00 +13°C° 0 mm 4 m/s 746 mmHg 90%
12:00 +14°C° 0 mm 4 m/s 746 mmHg 88%
13:00 +15°C° 0.1 mm 4 m/s 746 mmHg 87%
14:00 +15°C° 0.1 mm 4 m/s 745 mmHg 85%
15:00 +17°C° 0.1 mm 4 m/s 745 mmHg 83%
16:00 +16°C° 0.1 mm 3 m/s 745 mmHg 87%
17:00 +14°C° 0.1 mm 3 m/s 745 mmHg 91%
18:00 +14°C° 0.1 mm 2 m/s 745 mmHg 95%
19:00 +14°C° 0.1 mm 2 m/s 746 mmHg 96%
20:00 +13°C° 0.1 mm 2 m/s 746 mmHg 97%
21:00 +13°C° 0.1 mm 2 m/s 746 mmHg 98%
22:00 +13°C° 0 mm 1 m/s 746 mmHg 98%
23:00 +13°C° 0 mm 1 m/s 746 mmHg 98%
Arată mai mult

Formular de consimțământ

Meteoprog și furnizorii noștri de servicii pot stoca și accesa date personale, precum cookies, identificatori de dispozitiv sau alte tehnologii similare pe dispozitivul dumneavoastră și procesa astfel de date pentru a personaliza conținutul și reclamele, dar și pentru a oferi caracteristici de social media și pentru a analiza traficul.

  • Stocarea și/sau accesarea informațiilor pe dispozitivul dumneavoastră

    Cookies, identificatori de dispozitiv sau alte informații pot fi stocate sau accesate pe dispozitiv în scopurile indicate mai sus.

  • Reclame și conținut personalizat, evaluarea reclamelor și a conținutului, informații despre audiențe și dezvoltarea produselor

    Reclamele și conținutul pot fi personalizate pe baza unui profil. Pot fi adăugate date suplimentare pentru a personaliza mai bine reclamele și conținutul. Performanța reclamelor și conținutului poate fi măsurată. Pot fi obținute informații despre utilizatorii care au văzut reclamele și conținutul. Aceste date pot fi utilizate pentru a dezvolta sau îmbunătăți experiența utilizatorilor, sistemele și software-ul.

Dând clic pe ‘Sunt de acord’, permiteți utilizarea cookie-urilor menționate, a identificatorilor de dispozitiv, balizelor web sau altor tehnologii similare. Setările pot fi modificate din browser-ul dispozitivului dumneavoastră.

În anumite scopuri, interesele legitime pot prima asupra consimțământului. Puteți citi mai multe informații în acest sens în Politica privind Confidențialitatea Datelor și Cookie.